Mitchell, SD

11:53 PM CDT on October 22, 2019 (GMT -0500)
Mitchell Municipal

Weather History for KMHE - September, 2019

Change the Weather History Date:

Friday, September 20, 2019

  Actual Average Record
Temperature  
Mean Temperature 81 °F 61 °F  
Max Temperature 89 °F 74 °F 98 °F (1984)
Min Temperature 73 °F 47 °F 22 °F (1898)
Degree Days  
Heating Degree Days 0 6  
Month to date heating degree days 5 65  
Since 1 July heating degree days 14 82  
Cooling Degree Days 16 1  
Month to date cooling degree days 133 63  
Year to date cooling degree days 927 808  
Growing Degree Days 31 (Base 50)    
Moisture  
Dew Point 67 °F    
Average Humidity 67    
Maximum Humidity 87    
Minimum Humidity 46    
Precipitation  
Precipitation 0.00 in 0.08 in 1.27 in (1964)
Month to date precipitation 7.60 1.57  
Year to date precipitation 32.64 17.92  
Snow  
Snow 0.00 in - 0.00 in ()
Month to date snowfall 0.0  
Since 1 July snowfall 0.0  
Since 1 September snowfall 0.0  
Snow Depth 0.00 in    
Sea Level Pressure  
Sea Level Pressure 29.80 in    
Wind  
Wind Speed 17 mph (SSE)    
Max Wind Speed 29 mph    
Max Gust Speed 41 mph    
Visibility 10 miles    
Events      
T = Trace of Precipitation, MM = Missing Value Source: NWS Daily Summary

Daily Weather History Graph

Daily Weather History Graph

Search for Another Location

Airport or City:

Astronomy

Sep. 20, 2019 Rise Set
Actual Time 7:16 AM CDT 7:33 PM CDT
Civil Twilight 6:48 AM CDT 8:02 PM CDT
Nautical Twilight 6:14 AM CDT 8:35 PM CDT
Astronomical Twilight 5:39 AM CDT 9:10 PM CDT
Moon 11:12 PM CDT (9/20) 1:34 PM CDT (9/20)
Length of Visible Light 13h 14m
Length of Day
12h 16m
Waning Gibbous, 65% of the Moon is Illuminated
Sep 20
Waning Gibbous
Sep 21
Last Quarter
Sep 28
New
Oct 5
First Quarter
Oct 13
Full

Hourly Weather History & Observations

Time (CDT) Temp. Heat Index Dew Point Humidity Pressure Visibility Wind Dir Wind Speed Gust Speed Precip Events Conditions
12:53 AM 73.9 °F - 68.0 °F 82% 29.87 in 10.0 mi SE 13.8 mph 24.2 mph N/A   Clear
1:53 AM 73.9 °F - 68.0 °F 82% 29.87 in 10.0 mi SE 13.8 mph - N/A   Clear
2:53 AM 73.9 °F - 69.1 °F 85% 29.86 in 10.0 mi SE 12.7 mph - N/A   Clear
3:53 AM 73.9 °F - 69.1 °F 85% 29.85 in 10.0 mi SSE 11.5 mph 23.0 mph N/A   Clear
4:53 AM 73.9 °F - 69.1 °F 85% 29.85 in 10.0 mi SSE 15.0 mph 23.0 mph N/A   Clear
5:53 AM 73.0 °F - 68.0 °F 84% 29.85 in 10.0 mi SSE 13.8 mph - N/A   Clear
6:53 AM 73.0 °F - 68.0 °F 84% 29.86 in 10.0 mi SSE 12.7 mph 21.9 mph N/A   Clear
7:53 AM 73.0 °F - 68.0 °F 84% 29.86 in 10.0 mi SSE 13.8 mph 21.9 mph N/A   Clear
8:53 AM 75.0 °F - 68.0 °F 79% 29.88 in 10.0 mi SSE 13.8 mph - N/A   Clear
9:53 AM 77.0 °F - 69.1 °F 76% 29.88 in 10.0 mi SSE 13.8 mph - N/A   Clear
10:53 AM 81.0 °F 84.1 °F 69.1 °F 67% 29.87 in 10.0 mi SSE 15.0 mph 24.2 mph N/A   Clear
11:53 AM 82.9 °F 86.5 °F 69.1 °F 63% 29.84 in 10.0 mi South 16.1 mph 27.6 mph N/A   Clear
12:53 PM 86.0 °F 90.1 °F 69.1 °F 57% 29.82 in 10.0 mi SSE 20.7 mph 32.2 mph N/A   Clear
1:53 PM 87.1 °F 91.3 °F 69.1 °F 55% 29.79 in 10.0 mi South 16.1 mph 34.5 mph N/A   Scattered Clouds
2:53 PM 89.1 °F 92.9 °F 68.0 °F 50% 29.76 in 10.0 mi South 24.2 mph 39.1 mph N/A   Partly Cloudy
3:53 PM 89.1 °F 91.3 °F 66.0 °F 46% 29.75 in 10.0 mi South 25.3 mph 34.5 mph N/A   Partly Cloudy
4:53 PM 88.0 °F 89.6 °F 64.9 °F 46% 29.75 in 10.0 mi SSE 19.6 mph 36.8 mph N/A   Partly Cloudy
5:53 PM 86.0 °F 87.6 °F 64.9 °F 49% 29.75 in 10.0 mi SSE 18.4 mph 28.8 mph N/A   Clear
6:53 PM 82.0 °F 84.1 °F 66.0 °F 58% 29.73 in 10.0 mi SSE 19.6 mph 27.6 mph N/A   Clear
7:53 PM 80.1 °F 82.1 °F 66.0 °F 62% 29.73 in 10.0 mi SSE 18.4 mph 26.5 mph N/A   Clear
8:53 PM 79.0 °F - 66.0 °F 64% 29.73 in 10.0 mi SSE 19.6 mph 29.9 mph N/A   Clear
9:53 PM 77.0 °F - 64.9 °F 66% 29.73 in 10.0 mi SSE 18.4 mph 25.3 mph N/A   Clear
10:53 PM 75.9 °F - 66.0 °F 71% 29.74 in 10.0 mi South 18.4 mph 28.8 mph N/A   Clear
11:30 PM 75.0 °F - 66.0 °F 73% 29.76 in 10.0 mi SSE 15.0 mph 25.3 mph N/A   Mostly Cloudy
11:53 PM 73.9 °F - 66.0 °F 76% 29.73 in 10.0 mi SSE 13.8 mph 25.3 mph N/A   Scattered Clouds